sat.trackr.live / text

‹ back to catalog

STARLINK-5396

NORAD 54867 · 2022-177AZ

PAYLOAD ACTIVE UNKNOWN

§ Identity

Operator
Country
US
Launch date
2022-12-28
Launch site
AFETR
Launch vehicle
Mass (kg)
RCS (m²)

Purposes: comms

External: N2YO · Heavens-Above · Gunter

§ Orbital elements

Epoch: 2026-05-25T03:58:48.366048Z

Period
94.27 min
Inclination
43.0033°
Eccentricity
0.0000916
Mean motion
15.27575748 rev/d
Perigee alt
482.4 km
Apogee alt
483.7 km
Semi-major
6,861.2 km
B*
1.2710e-5
RAAN
49.9360°
Arg perigee
253.8166°
Mean anomaly
106.2585°
Rev number
18,878

§ Raw data

STARLINK-53961 54867U 22177AZ  26145.16583757  .00000088  00000+0  12710-4 0  99992 54867  43.0033  49.9360 0000916 253.8166 106.2585 15.27575748188783

JSON: /api/v1/satellites/54867 · /tle

For live sub-satellite position, see the globe view (requires WebGL).

§ Visibility from observer

Set your observer location to see the next 7 days of passes ≥ 10°. The values pass through the URL so the page stays shareable.

No JS? Fill the form by hand. The geolocation button needs JavaScript.